User: anonymous   Login
Location: Caltech
(34.1382°N, 118.1253°W)
Time: 11:24:45
(UTC-07:00)
Language:

Iridium 62 - Orbit

View from above orbital plane
View from above orbital plane
View from above satellite
View from above satellite

Ground track
Ground track

The orbit data is extracted from the following two-line orbital elements,

1 25285U 98021A   15214.36592888  .00000280  00000-0  92855-4 0  9997
2 25285 086.4007 150.1961 0002421 084.3193 275.8279 14.34219396906860
Epoch (UTC): 02 August 2015 08:46:56
Eccentricity: 0.0002421
inclination: 86.4007°
perigee height: 776 km
apogee height: 779 km
right ascension of ascending node: 150.1961°
argument of perigee: 84.3193°
revolutions per day: 14.34219396
mean anomaly at epoch: 275.8279°
orbit number at epoch: 90686

The dashed part of the orbit path shows where the satellite is in the earth's shadow,  

DLR